User: anonymous   Login
Location: Holcomb Observatory
(44.4922°N, 73.1654°W)
Time: 09:59:48
(UTC-04:00)
Language:

SL-16 R/B - Orbit

View from above orbital plane
View from above orbital plane
View from above satellite
View from above satellite

Ground track
Ground track

The orbit data is extracted from the following two-line orbital elements,

1 27006U 01056F   17085.91034615 -.00000046 +00000-0 -36345-5 0  9995
2 27006 099.2989 229.6825 0014956 161.2002 308.3475 13.70971660765226
Epoch (UTC): 26 March 2017 21:50:53
Eccentricity: 0.0014956
inclination: 99.2989°
perigee height: 985 km
apogee height: 1007 km
right ascension of ascending node: 229.6825°
argument of perigee: 161.2002°
revolutions per day: 13.70971660
mean anomaly at epoch: 308.3475°
orbit number at epoch: 76522

The dashed part of the orbit path shows where the satellite is in the earth's shadow,  

DLR